Location: Grand Moustoir
(47.8355°N, 3.3120°W)
Time: 18:45:48
(UTC+00:00)

NOSS 8 (H) - Pass Details

Date: 20 January 2020
Orbit: 393 x 1784 km, 63.3° (Epoch: 15 February)

Event Time Altitude Azimuth Distance (km) Brightness Sun altitude
Exits shadow 06:01:39 54° 345° (NNW) 488 4.3 -18.5°
Drops below altitude 10° 06:04:25 10° 34° (NE) 1,480 7.3 -18.1°
Sets 06:06:35 0° 39° (NE) 2,421 8.5 -17.7°
